Simultaneous Nadir Overpasses (SNOs) Predictions

Prediction of SNOs between GOES-17 and AQUA Satellite Orbit:

Table of predicted SNOs for the next 14.0 days since TLE Epoch: 10/18/2019
Index Date Time (GOES-17) GOES-17 Lat,Lon AQUA Lat,Lon Distance(km) Time Diff (sec)
1 10/19/2019 10:30:37 0.00,-137.20 -0.65,-134.23 338.06 80
2 10/19/2019 22:52:00 -0.00,-137.20 -0.48,-139.42 252.33 80
3 10/21/2019 22:42:28 -0.00,-137.19 0.13,-136.46 82.60 80
4 10/23/2019 22:30:17 0.00,-137.17 0.80,-133.51 416.92 80
5 10/24/2019 10:51:32 -0.00,-137.17 0.33,-138.66 170.18 80
6 10/26/2019 10:36:40 0.00,-137.14 -0.28,-135.70 163.72 80
7 10/26/2019 22:58:04 -0.00,-137.14 -0.82,-140.89 427.13 80
8 10/28/2019 10:24:29 0.00,-137.12 -0.95,-132.75 497.12 80
9 10/28/2019 22:45:52 -0.00,-137.11 -0.20,-137.93 93.83 80
10 10/30/2019 22:36:20 -0.00,-137.08 0.42,-134.97 239.00 80
11 10/31/2019 10:57:36 0.00,-137.07 0.66,-140.13 348.58 80




NCC Satellite Simultaneous Nadir Overpasses (SNOs) Prediction Service
